EW9765 Weather Reports


Display with metric or nautical units.
time (UTC)temp
F
wind
direction
speed
MPH
gust
MPH
rain 1hr
in
rain 24hr
in
rain mn
in
humidity
%
barometer
mb
20260906210015 72 81 2.0 6.0 0.00 0.00 0.00 76 1018.1
20260906204514 72 81 1.0 5.0 0.00 0.00 0.00 76 1018.0
20260906203009 71 30 1.0 4.0 0.00 0.00 0.00 79 1017.9
20260906201511 71 60 1.0 6.0 0.00 0.00 0.00 79 1017.9
20260906200006 71 61 2.0 7.0 0.00 0.00 0.00 80 1017.9
20260906194505 72 53 2.0 6.0 0.00 0.00 0.00 77 1017.9
20260906193005 72 248 0.0 4.0 0.00 0.00 0.00 78 1017.8
20260906191503 74 32 2.0 6.0 0.00 0.00 0.00 74 1017.8
20260906190003 73 34 5.0 12.0 0.00 0.00 0.00 74 1017.7
20260906184502 73 65 2.0 6.0 0.00 0.00 0.00 76 1017.7
20260906183005 74 63 2.0 6.0 0.00 0.00 0.00 75 1017.9
20260906181609 74 76 1.0 6.0 0.00 0.00 0.00 78 1017.8
20260906180115 73 48 2.0 8.0 0.00 0.00 0.00 78 1017.8
20260906174557 73 78 2.0 5.0 0.00 0.00 0.00 79 1017.8
20260906173054 72 73 2.0 8.0 0.00 0.00 0.00 78 1017.7
20260906171553 72 360 1.0 5.0 0.00 0.00 0.00 80 1017.9
20260906170052 71 346 1.0 5.0 0.00 0.00 0.00 83 1018.0
20260906164552 71 64 1.0 5.0 0.00 0.00 0.00 83 1017.9
20260906163049 72 73 3.0 10.0 0.00 0.00 0.00 81 1017.9
20260906161554 71 338 2.0 5.0 0.00 0.00 0.00 85 1017.8
20260906160048 72 59 1.0 6.0 0.00 0.00 0.00 85 1017.9
20260906154544 71 28 1.0 4.0 0.00 0.00 0.00 88 1017.8
20260906153041 70 68 3.0 9.0 0.00 0.00 0.00 88 1017.8
20260906151538 69 18 1.0 5.0 0.00 0.00 0.00 92 1017.7
20260906150046 69 5 0.0 4.0 0.00 0.00 0.00 92 1017.8
20260906144534 69 19 1.0 6.0 0.00 0.00 0.00 95 1017.7
20260906143029 68 78 3.0 8.0 0.00 0.00 0.00 98 1017.4
20260906141529 67 327 2.0 8.0 0.00 0.00 0.00 99 1017.5
20260906140035 67 26 0.0 5.0 0.00 0.00 0.00 100 1017.4
20260906134523 67 54 0.0 8.0 0.00 0.00 0.00 100 1017.2
20260906133021 66 50 1.0 3.0 0.00 0.00 0.00 100 1017.2
20260906131520 65 40 0.0 8.0 0.00 0.00 0.00 100 1017.2
20260906130020 65 74 1.0 3.0 0.00 0.00 0.00 100 1017.1
20260906124515 64 30 0.0 4.0 0.00 0.00 0.00 100 1017.1
20260906123017 63 24 0.0 3.0 0.00 0.00 0.00 100 1017.1
20260906121521 62 24 0.0 2.0 0.00 0.00 0.00 100 1017.0
20260906120005 60 24 0.0 0.0 0.00 0.00 0.00 100 1016.9
20260906114503 57 24 0.0 0.0 0.00 0.00 0.00 100 1016.7
20260906113006 57 24 0.0 0.0 0.00 0.00 0.00 100 1016.5
20260906111600 57 24 0.0 0.0 0.00 0.00 0.00 100 1016.3
20260906110059 57 24 0.0 0.0 0.00 0.01 0.00 100 1016.2
20260906104656 57 24 0.0 0.0 0.00 0.01 0.00 100 1016.0
20260906103055 57 24 0.0 0.0 0.00 0.01 0.00 100 1015.9
20260906101554 57 24 0.0 0.0 0.00 0.01 0.00 100 1015.8
20260906100052 57 24 0.0 0.0 0.00 0.01 0.00 100 1015.7
20260906094551 58 24 0.0 0.0 0.00 0.01 0.00 100 1015.6
20260906093049 58 24 0.0 0.0 0.00 0.01 0.00 100 1015.4
20260906091546 58 24 0.0 0.0 0.00 0.01 0.00 100 1015.4
20260906090045 58 24 0.0 0.0 0.00 0.01 0.00 100 1015.3
20260906084543 58 24 0.0 0.0 0.00 0.01 0.00 100 1015.0
20260906083040 59 24 0.0 0.0 0.00 0.01 0.00 100 1014.7
20260906081544 59 24 0.0 0.0 0.00 0.01 0.00 100 1014.6
20260906080040 60 24 0.0 0.0 0.00 0.01 0.00 100 1014.6
20260906074545 60 24 0.0 0.0 0.00 0.01 0.00 100 1014.7
20260906073036 60 24 0.0 0.0 0.00 0.01 0.00 100 1014.7
20260906071537 60 24 0.0 0.0 0.00 0.01 0.00 100 1014.6
20260906070035 60 24 0.0 0.0 0.00 0.01 0.00 100 1014.5
20260906064535 60 24 0.0 0.0 0.00 0.01 0.00 100 1014.6
20260906063034 60 24 0.0 0.0 0.00 0.01 0.00 100 1014.6
20260906061534 60 24 0.0 0.0 0.00 0.01 0.00 100 1014.6
20260906060035 61 24 0.0 0.0 0.00 0.01 0.00 100 1014.7
20260906054535 60 24 0.0 0.0 0.00 0.01 0.00 100 1014.7
20260906053034 60 24 0.0 0.0 0.00 0.01 0.00 100 1014.7
20260906051530 60 24 0.0 0.0 0.00 0.01 0.00 100 1014.8
20260906050038 60 24 0.0 0.0 0.00 0.01 0.00 100 1014.7
20260906044535 59 24 0.0 0.0 0.00 0.01 0.00 100 1014.8
20260906043026 60 24 0.0 0.0 0.00 0.01 0.00 100 1014.6
20260906041528 60 24 0.0 0.0 0.00 0.01 0.00 100 1014.5
20260906040028 60 24 0.0 0.0 0.00 0.01 0.01 100 1014.5
20260906034526 60 24 0.0 0.0 0.00 0.01 0.01 100 1014.4
20260906033036 61 24 0.0 0.0 0.00 0.01 0.01 100 1014.4
20260906031521 61 24 0.0 0.0 0.00 0.01 0.01 100 1014.2
20260906030019 61 24 0.0 0.0 0.00 0.01 0.01 100 1014.2
20260906024518 61 24 0.0 0.0 0.00 0.01 0.01 100 1014.2
20260906023017 62 24 0.0 0.0 0.00 0.01 0.01 100 1014.1
20260906021516 62 24 0.0 0.0 0.00 0.01 0.01 100 1014.0
20260906020015 62 24 0.0 0.0 0.00 0.01 0.01 100 1014.0
20260906014515 62 24 0.0 0.0 0.00 0.01 0.01 100 1013.9
20260906013014 63 24 0.0 0.0 0.00 0.01 0.01 100 1013.8
20260906011513 63 24 0.0 0.0 0.00 0.01 0.01 100 1013.8
20260906010012 64 24 0.0 0.0 0.00 0.01 0.01 100 1013.6
20260906004511 64 24 0.0 0.0 0.00 0.01 0.01 100 1013.6
20260906003011 64 24 0.0 0.0 0.00 0.01 0.01 99 1013.5
20260906001511 65 24 0.0 0.0 0.00 0.01 0.01 97 1013.5
20260906000010 66 24 0.0 0.0 0.00 0.01 0.01 93 1013.6
20260905234508 68 24 0.0 0.0 0.00 0.01 0.01 90 1013.6
20260905233008 70 24 0.0 0.0 0.00 0.01 0.01 84 1013.5
20260905231508 72 24 0.0 0.0 0.00 0.01 0.01 81 1013.5
20260905230008 73 24 0.0 2.0 0.00 0.01 0.01 78 1013.4
20260905224507 74 24 0.0 2.0 0.00 0.01 0.01 76 1013.3
20260905223007 75 24 0.0 2.0 0.00 0.01 0.01 74 1013.4
20260905221506 76 22 0.0 2.0 0.00 0.01 0.01 73 1013.3
20260905220006 76 42 0.0 3.0 0.00 0.01 0.01 71 1013.3
20260905214506 76 38 0.0 4.0 0.00 0.01 0.01 70 1013.0
20260905213004 77 45 1.0 5.0 0.00 0.01 0.01 70 1012.9
20260905211502 76 28 0.0 3.0 0.00 0.01 0.01 73 1012.7